STARLINK-1508 (45765 NORAD) Tracking and Keplerian Element Data

This shows tracking and keplerian element data for the satellite.

Feedback or suggestion? Click here.




ElementValue
Catalog45765
NameSTARLINK-1508
Epoch Orbit951
Epoch Day218.91667824
Epoch Year2020
RAAN33.922
Inclination53.0004
Eccentricity0.0001631
Argument of Perigee50.1458
Mean Anonmoly140.8816
Mean Motion15.62705761
Decay Rate0.00067846
L11 45765U 20038AM 20218.91667824 .00067846 00000-0 74195-3 0 9996
L22 45765 53.0004 33.9220 0001631 50.1458 140.8816 15.62705761 9517

Live tracking and technical data element details for STARLINK-1508 (NORAD 45765). STARLINK-1508 can be tracked NOW for your location showing map with azimuth and elevation plus other details from your city location.

Track the satellite on the map from your city or location and see movement details for azimuth, elevation, latitude, longitude, range, height, and movement on the map or in text.







IsCatalogInMostPopularTable: catalog: 45765, numindb: 11
Update: records affected: 1



GetName: 45765 STARLINK-1508

Hit Count: updated at: Sat, 08 Aug 2020 00:41:44 GMT